Greensboro, NC

12:06 AM EST on December 14, 2017 (GMT -0500)
Piedmont Triad International

Weather History for KGSO - November, 2011

Change the Weather History Date:

Sunday, November 13, 2011

  Actual Average Record
Temperature  
Mean Temperature 52 °F 51 °F  
Max Temperature 61 °F 62 °F 80 °F (1915)
Min Temperature 42 °F 40 °F 22 °F (1941)
Degree Days  
Heating Degree Days 13 14  
Month to date heating degree days 201 158  
Since 1 July heating degree days 441 391  
Cooling Degree Days 0 0  
Month to date cooling degree days 0 0  
Year to date cooling degree days 1794 1480  
Growing Degree Days 2 (Base 50)    
Moisture  
Dew Point 34 °F    
Average Humidity 50    
Maximum Humidity 77    
Minimum Humidity 23    
Precipitation  
Precipitation 0.00 in 0.11 in 1.85 in (1940)
Month to date precipitation 2.07 1.37  
Year to date precipitation 35.82 37.48  
Snow  
Snow 0.00 in - - ()
Month to date snowfall 0.0  
Snow Depth 0.00 in    
Sea Level Pressure  
Sea Level Pressure 30.16 in    
Wind  
Wind Speed 11 mph (SW)    
Max Wind Speed 28 mph    
Max Gust Speed 33 mph    
Visibility 10 miles    
Events      
T = Trace of Precipitation, MM = Missing Value Source: NWS Daily Summary

Daily Weather History Graph

Daily Weather History Graph

Search for Another Location

Airport or City:

Trip Planner

Search our weather history database for the weather conditions in past years. The results will help you decide how hot, cold, wet, or windy it might be!

Date:

Astronomy

Nov. 13, 2011 Rise Set
Actual Time 6:54 AM EST 5:13 PM EST
Civil Twilight 6:26 AM EST 5:40 PM EST
Nautical Twilight 5:56 AM EST 6:11 PM EST
Astronomical Twilight 5:25 AM EST 6:41 PM EST
Moon 7:23 PM EST (11/13) 9:22 AM EST (11/13)
Length of Visible Light 11h 13m
Length of Day
10h 19m
Waning Gibbous, 93% of the Moon is Illuminated
Nov 13
Waning Gibbous
Nov 18
Last Quarter
Nov 25
New
Dec 2
First Quarter
Dec 10
Full

Hourly Weather History & Observations

Time (EST) Temp. Windchill Dew Point Humidity Pressure Visibility Wind Dir Wind Speed Gust Speed Precip Events Conditions
12:54 AM 46.0 °F 43.1 °F 30.9 °F 56% 30.22 in 10.0 mi SSW 5.8 mph - N/A   Clear
1:54 AM 48.0 °F - 30.0 °F 50% 30.20 in 10.0 mi SSW 6.9 mph - N/A   Clear
2:54 AM 46.9 °F - 30.0 °F 52% 30.21 in 10.0 mi SW 8.1 mph - N/A   Clear
3:54 AM 48.0 °F - 28.9 °F 48% 30.18 in 10.0 mi SW 6.9 mph - N/A   Clear
4:54 AM 44.1 °F 39.5 °F 28.9 °F 55% 30.19 in 10.0 mi SW 8.1 mph - N/A   Clear
5:54 AM 44.1 °F 39.0 °F 28.9 °F 55% 30.21 in 10.0 mi SSW 9.2 mph - N/A   Clear
6:54 AM 43.0 °F 38.2 °F 28.0 °F 56% 30.20 in 10.0 mi SW 8.1 mph - N/A   Clear
7:54 AM 46.9 °F - 28.0 °F 48% 30.22 in 10.0 mi SW 9.2 mph - N/A   Clear
8:54 AM 50.0 °F - 28.0 °F 43% 30.22 in 10.0 mi SW 10.4 mph - N/A   Clear
9:54 AM 57.0 °F - 25.0 °F 29% 30.21 in 10.0 mi SW 15.0 mph 21.9 mph N/A   Clear
10:54 AM 61.0 °F - 23.0 °F 23% 30.22 in 10.0 mi SW 23.0 mph 33.4 mph N/A   Clear
11:54 AM 60.1 °F - 24.1 °F 25% 30.20 in 10.0 mi SW 21.9 mph 28.8 mph N/A   Clear
12:54 PM 59.0 °F - 25.0 °F 27% 30.17 in 10.0 mi SW 20.7 mph 27.6 mph N/A   Clear
1:54 PM 59.0 °F - 32.0 °F 36% 30.12 in 10.0 mi SSW 18.4 mph 26.5 mph N/A   Clear
2:54 PM 60.1 °F - 35.1 °F 39% 30.11 in 10.0 mi SSW 17.3 mph 28.8 mph N/A   Clear
3:54 PM 59.0 °F - 39.9 °F 49% 30.11 in 10.0 mi SSW 13.8 mph - N/A   Clear
4:54 PM 57.0 °F - 41.0 °F 55% 30.12 in 10.0 mi SSW 10.4 mph - N/A   Clear
5:54 PM 57.0 °F - 43.0 °F 59% 30.13 in 10.0 mi SW 10.4 mph - N/A   Partly Cloudy
6:54 PM 52.0 °F - 43.0 °F 71% 30.14 in 10.0 mi SSW 4.6 mph - N/A   Clear
7:54 PM 50.0 °F - 43.0 °F 77% 30.14 in 10.0 mi SW 5.8 mph - N/A   Scattered Clouds
8:54 PM 52.0 °F - 45.0 °F 77% 30.13 in 10.0 mi SSW 9.2 mph - N/A   Partly Cloudy
9:54 PM 52.0 °F - 45.0 °F 77% 30.11 in 10.0 mi SSW 5.8 mph - N/A   Clear
10:54 PM 53.1 °F - 45.0 °F 74% 30.10 in 10.0 mi SSW 6.9 mph - N/A   Clear
11:54 PM 54.0 °F - 46.0 °F 75% 30.09 in 10.0 mi SW 10.4 mph - N/A   Clear